Tracking 25195 objects as of 21-Jan-2022
HD Live streaming from Space Station
objects crossing your sky now

STARLINK-1790

Track STARLINK-1790 now!
10-day predictions
STARLINK-1790 is classified as:


NORAD ID: 46691
Int'l Code: 2020-073X
Perigee: 553.0 km
Apogee: 555.9 km
Inclination: 53.1 °
Period: 95.6 minutes
Semi major axis: 6925 km
RCS: Unknown
Launch date: October 18, 2020
Source: United States (US)
Launch site: AIR FORCE EASTERN TEST RANGE (AFETR)
aabbcc
Your satellite tracking list
Your tracking list is empty




NASA's NSSDC Master Catalog

Two Line Element Set (TLE):
1 46691U 20073X   22020.75560086  .00000148  00000-0  28846-4 0  9996
2 46691  53.0549 175.4982 0002096  78.3282 281.7942 15.06381790 70175
Source of the keplerian elements: AFSPC